Regional Weather Roundup
Issued by NWS

Home | Current Version | Previous Version | Text Only | Print | Product List | Glossary Off
Versions: 1 2 3 4 5 6 7 8 9 10 11 12 13 14 15 16 17 18 19 20 21 22 23 24 25 26 27 28 29 30 31 32 33 34 35 36 37 38 39 40 41 42 43 44 45 46 47 48 49 50

000
ASUS43 KBIS 280902
RWRND

NORTH DAKOTA REGIONAL WEATHER ROUNDUP
NATIONAL WEATHER SERVICE BISMARCK ND
400 AM CDT WED SEP 28 2016

NOTE: "FAIR" INDICATES FEW OR NO CLOUDS BELOW 12,000 FEET WITH NO
SIGNIFICANT WEATHER AND/OR OBSTRUCTIONS TO VISIBILITY.


NDZ001>003-009>011-017-281000-
NORTHWEST NORTH DAKOTA

CITY           SKY/WX    TMP DP  RH WIND       PRES   REMARKS
WILLISTON      CLEAR     49  45  86 N5        30.09R
MINOT          CLEAR     43  37  79 E5        30.11R
MINOT AFB      CLEAR     39  35  86 SE6       30.10R
$$

NDZ018>021-031>035-040>046-281000-
SOUTHWEST NORTH DAKOTA

CITY           SKY/WX    TMP DP  RH WIND       PRES   REMARKS
BISMARCK       CLOUDY    40  36  86 E7        30.13R
DICKINSON      CLEAR     48  42  80 S8        30.08R
GARRISON         N/A     45  41  86 E6        30.11R
HETTINGER ARPT CLEAR     46  42  86 CALM      30.11R
$$

NDZ004>008-012>016-024-026-027-054-281000-
NORTHEAST NORTH DAKOTA

CITY           SKY/WX    TMP DP  RH WIND       PRES   REMARKS
GRAND FORKS    CLOUDY    40  38  93 NW6       30.12R
GRND FRKS AFB  CLOUDY    40  39  95 NW5       30.13R
DEVILS LAKE    CLOUDY    45  43  93 CALM      30.15R
$$

NDZ022-023-025-028>030-036>039-047>053-281000-
SOUTHEAST NORTH DAKOTA

CITY           SKY/WX    TMP DP  RH WIND       PRES   REMARKS
FARGO          CLOUDY    40  37  89 N7        30.10R
JAMESTOWN      CLOUDY    40  39  97 N3        30.12R
$$





USA.gov is the U.S. government's official web portal to all federal, state and local government web resources and services.